Weather History for Santa Monica, CA

Change the Weather History Date:

Thursday, December 26, 2013

  Actual Average Record
Temperature  
Mean Temperature 66 °F -  
Max Temperature 79 °F 67 °F 86 °F (1947)
Min Temperature 52 °F 45 °F 34 °F (1953)
Growing Degree Days 16 (Base 50)    
Moisture  
Dew Point 17 °F    
Average Humidity 18    
Maximum Humidity 34    
Minimum Humidity 8    
Precipitation  
Precipitation 0.00 in - - ()
Sea Level Pressure  
Sea Level Pressure 30.13 in    
Wind  
Wind Speed 3 mph (NE)    
Max Wind Speed 6 mph    
Max Gust Speed -    
Visibility 10 miles    
Events      
Averages and records for this station are not official NWS values.
T = Trace of Precipitation, MM = Missing Value Source: NWS Daily Summary

Daily Weather History Graph

Daily Weather History Graph

Search for Another Location

Airport:

Trip Planner

Search our weather history database for the weather conditions in past years. The results will help you decide how hot, cold, wet, or windy it might be!

Date:

Astronomy

Dec. 26, 2013 Rise Set
Actual Time 6:57 AM PST 4:51 PM PST
Civil Twilight 6:29 AM PST 5:19 PM PST
Nautical Twilight 5:58 AM PST 5:50 PM PST
Astronomical Twilight 5:28 AM PST 6:21 PM PST
Moon 12:42 AM PST (12/26) 12:19 PM PST (12/26)
Length of Visible Light 10h 49m
Length of Day
9h 53m
Last Quarter, 37% of the Moon is Illuminated
Dec 26
Last Quarter
Jan 1
New
Jan 7
First Quarter
Jan 15
Full
Jan 23
Last Quarter

Hourly Weather History & Observations

Time (PST) Temp. Dew Point Humidity Pressure Visibility Wind Dir Wind Speed Gust Speed Precip Events Conditions
12:51 AM 55.9 °F 23.0 °F 28% 30.14 in 10.0 mi NE 3.5 mph - N/A   Clear
1:51 AM 54.0 °F 21.9 °F 29% 30.14 in 10.0 mi NE 3.5 mph - N/A   Clear
2:51 AM 55.0 °F 21.0 °F 27% 30.14 in 10.0 mi ENE 4.6 mph - N/A   Clear
3:51 AM 54.0 °F 19.9 °F 26% 30.14 in 10.0 mi NE 4.6 mph - N/A   Clear
4:51 AM 52.0 °F 24.1 °F 34% 30.14 in 10.0 mi ENE 4.6 mph - N/A   Clear
5:51 AM 57.0 °F 17.1 °F 21% 30.14 in 10.0 mi Calm Calm - N/A   Clear
6:51 AM 55.0 °F 15.1 °F 21% 30.14 in 10.0 mi Calm Calm - N/A   Clear
7:51 AM 57.0 °F 21.9 °F 26% 30.16 in 10.0 mi East 4.6 mph - N/A   Clear
8:51 AM 62.1 °F 24.1 °F 23% 30.17 in 10.0 mi ENE 3.5 mph - N/A   Clear
9:51 AM 68.0 °F 21.9 °F 17% 30.17 in 10.0 mi East 3.5 mph - N/A   Clear
10:51 AM 73.9 °F 17.1 °F 12% 30.15 in 10.0 mi East 3.5 mph - N/A   Clear
11:51 AM 77.0 °F 16.0 °F 10% 30.12 in 10.0 mi Calm Calm - N/A   Clear
12:51 PM 79.0 °F 12.9 °F 8% 30.09 in 10.0 mi Calm Calm - N/A   Clear
1:51 PM 77.0 °F 14.0 °F 9% 30.07 in 10.0 mi SSW 5.8 mph - N/A   Clear
2:51 PM 75.9 °F 10.0 °F 8% 30.07 in 10.0 mi WSW 4.6 mph - N/A   Clear
3:51 PM 73.9 °F 10.0 °F 9% 30.09 in 10.0 mi West 4.6 mph - N/A   Clear
4:51 PM 70.0 °F 12.9 °F 11% 30.09 in 10.0 mi WNW 3.5 mph - N/A   Clear
5:51 PM 68.0 °F 17.1 °F 14% 30.10 in 10.0 mi NW 5.8 mph - N/A   Clear
6:51 PM 66.9 °F 14.0 °F 13% 30.11 in 10.0 mi NNW 3.5 mph - N/A   Clear
7:51 PM 66.0 °F 10.0 °F 11% 30.12 in 10.0 mi Calm Calm - N/A   Clear
8:51 PM 66.0 °F 9.0 °F 11% 30.13 in 10.0 mi North 3.5 mph - N/A   Clear
9:51 PM 60.1 °F 18.0 °F 20% 30.14 in 10.0 mi East 4.6 mph - N/A   Clear
10:51 PM 59.0 °F 21.0 °F 23% 30.14 in 10.0 mi Calm Calm - N/A   Clear
11:51 PM 54.0 °F 24.1 °F 31% 30.14 in 10.0 mi Calm Calm - N/A   Clear